Other Public Products
Issued by NWS Charleston, SC

Current Version | Previous Version | Graphics & Text | Print | Product List | Glossary On
Versions: 1 2 3 4 5 6 7 8 9 10 11 12 13 14 15 16 17 18 19 20 21 22 23 24 25 26 27 28 29 30 31 32 33 34 35 36 37 38 39 40 41 42 43 44 45 46 47 48 49 50
637 FPUS82 KCHS 201527 OPUCHS TEST...KCHS/KSAV Gateway Observations...TEST National Weather Service Charleston SC 1000 AM EST TUE FEB 20 2018 NOTE: "fair" indicates few or no clouds below 12,000 feet with no significant weather and/or obstructions to visibility. SCZ050-WAZ558-NCZ071-TXZ119-213-PAZ071-DCZ001-FLZ074-172-MI076- NYZ176-178-MAZ016-IL014-TNZ027-NJZ106-GAZ044-MD014-201600- ...Gateway Observations for Charleston International... CITY SKY/WX TMP DP RH WIND PRES REMARKS Chas Airport FAIR 74 66 76 S8 30.45R Seattle CLOUDY 29 19 66 SE7 30.16F WCI 22 Charlotte FOG 61 61 100 S8 30.46S VSB 1/2 Dallas DFW CLOUDY 70 64 81 S15G24 29.89R Dallas Love CLOUDY 69 65 86 SE18 29.91R Philladelphia CLOUDY 53 53 100 SW10 30.38R FOG Wash National PTSUNNY 60 55 83 S8 30.39R Baltimore PTSUNNY 61 57 87 SW9 30.36S Miami FAIR 82 70 66 E17G24 30.33R Detroit LGT RAIN 59 56 89 S18 29.98F Newark CLOUDY 53 51 93 SW12 30.34S Laguardia CLOUDY 54 51 90 SW14 30.33S J F K CLOUDY 51 51 100 SW13 30.35S FOG Boston Logan PTSUNNY 56 51 84 SW9 30.24F Ft. Lauderdale FAIR 80 72 76 E17 30.32R Chicago O`Hare LGT RAIN 60 57 89 S16 29.84F Chicago Midway CLOUDY 62 61 96 S15G25 29.86F Houston Bush CLOUDY 73 68 84 S18G30 30.03R Houston Hobby CLOUDY 73 70 90 S18G28 30.02R Nashville CLOUDY 71 57 61 S21G32 30.24R Atlanta DRZL/FOG 63 63 100 SE10 30.39R VSB 1/4 $$ GAZ044-118-TXZ119-213-NCZ071-DCZ001-MDZ014-506-PAZ021-071-NJZ106- NYZ176-178-MAZ106-OHZ011-021-055-MIZ076-KYZ091-ILZ014-INZ047- MNZ060-ONZ431-201600- ...Gateway Observations for Savannah International... CITY SKY/WX TMP DP RH WIND PRES REMARKS Savannah Arpt FAIR 75 67 76 S6 30.43R Atlanta DRZL/FOG 63 63 100 SE10 30.39R VSB 1/4 Charlotte FOG 61 61 100 S8 30.46S VSB 1/2 Dallas DFW CLOUDY 70 64 81 S15G24 29.89R Houston Bush CLOUDY 73 68 84 S18G30 30.03R Wash National PTSUNNY 60 55 83 S8 30.39R Wash Dulles PTSUNNY 59 55 87 S12 30.37S Baltimore PTSUNNY 61 57 87 SW9 30.36S Philadelphia CLOUDY 53 53 100 SW10 30.38R FOG Newark CLOUDY 53 51 93 SW12 30.34S Laguardia CLOUDY 54 51 90 SW14 30.33S J F K CLOUDY 51 51 100 SW13 30.35S FOG Boston PTSUNNY 56 51 84 SW9 30.24F Pittsburg CLOUDY 68 54 60 SW16G25 30.21S Akron PTSUNNY 65 54 67 SW18 30.16S Cleveland CLOUDY 68 57 68 SW21G29 30.10F Cincinnati PTSUNNY 69 59 70 S22G30 30.14S Columbus FAIR 68 59 72 SW23G37 30.16F Detroit LGT RAIN 59 56 89 S18 29.98F Chicago O`Hare LGT RAIN 60 57 89 S16 29.84F Minneapolis FLURRIES 20 18 92 NW10 29.91R WCI 9 Indianapolis PTSUNNY 69 58 67 SW22G38 30.03R Toronto Canada LGT RAIN 46 46 100 SE5 30.02R $$

USA.gov is the U.S. government's official web portal to all federal, state and local government web resources and services.